STARLINK-32577, 62044

Orbit data source: Space-Track

STARLINK-32577, 62044 is a payload satellite owned by SpaceX/Seattle (US) in LEO that was launched on Thu, 21 Nov 2024 UTC via an FALCON 9 launch vehicle from the Air Force Eastern Test Range (AFETR). Payload-class satellites include a variety of spacecraft equipped with specific instruments for various scientific and technological missions. These include communications satellites like Starlink; space stations such as the ISS; scientific satellites like the Hubble; Earth observation satellites from companies like Planet Labs, Umbra, and HawkEye 360; GPS; miniature CubeSats for education and research; and military/defense satellites.

Loading next visibility...
Identifier
62044, 2024-216N
Orbit
LEO
Country
Flag of USUS
Related business
Manufacturer
SpaceX/Seattle
Mission
Operational Commercial Communications
Bus & Motor
STARLINK V2M, Unknown motor
Mass
730 kg wet, ~700 kg dry
Launch date (UTC)
2024-11-21 (1 year ago)
Launch vehicle
FALCON 9
Launch site
Air Force Eastern Test Range (AFETR)
Object type
Payload
Rocket body
Debris
Shape & HBR
Box + 2 Pan, 17.7 m
Radar Cross Section
33.884 m², Large (>1 m²)

Expand to show TLE details & history
Last TLE update: 19 hours ago

TLE from 19 hours ago
0 STARLINK-32577
1 62044U 24216N   25353.06809175  .00017086  00000-0  62867-3 0  9999
2 62044  43.0059 358.7237 0001784 268.9642  91.1005 15.27595904 61472
Epoch: 2025-12-19T01:38Z
TLE epoch observation values (Epoch: 2025-12-19T01:38:03.127Z)
Latitude
-0.00003°
Longitude
-113.70392°
Altitude
482.801 km
Speed
7.626 km/s
True Right ascension
23h 54m 53s
True Declination
0° 00' 00"
Sunlit
Object was in daylight at epoch
Visualization orbit readout
Latitude
Unknown
Longitude
Unknown
Altitude
Unknown
Speed
Unknown
Apparent Right ascension
Unknown
Apparent Declination
Unknown
Sunlit
N/A
Visualization observer readout
Local Sidereal Time
19:35:44
Azimuth
Unknown
Elevation
Unknown
Doppler factor
Unknown
Orbital elements
Apogee altitude
486.17 km
Perigee altitude
483.721 km
Semi-major axis
6,863.083 km
Eccentricity
0.00018
Inclination
43.0059°
RAAN
358.7237°
Arg. of periapsis
268.9642°
True anomaly
91.12094°
Mean anomaly
91.1005°
Eccentric anomaly
91.11072°
Mean motion
3.81737 °/min
Orbital period
94.31 mins
BSTAR
0.00062867
Loading maneuver chart data...
Computing Atmospheric mass density...
Loading historical data...
Loading historical data...
Loading historical data...
Loading historical data...
Loading historical data...
Loading historical data...
Loading historical data...

Documentation

Showing up to 5 results
|